User: anonymous   Login
Location: Bangkok
(13.7500°N, 100.5170°E)
Time: 17:16:44
(UTC+07:00)
Language:

SPOT 1/Viking Rocket - Orbit

View from above orbital plane
View from above orbital plane
View from above satellite
View from above satellite

Ground track
Ground track

The orbit data is extracted from the following two-line orbital elements,

1 16615U 86019C   15028.14829663  .00000154  00000-0  74967-4 0  5957
2 16615 098.7273 085.7719 0012794 088.1954 328.9963 14.31407119514878
Epoch (UTC): 28 January 2015 03:33:32
Eccentricity: 0.0012794
inclination: 98.7273°
perigee height: 778 km
apogee height: 796 km
right ascension of ascending node: 85.7719°
argument of perigee: 88.1954°
revolutions per day: 14.31407119
mean anomaly at epoch: 328.9963°
orbit number at epoch: 51487

The dashed part of the orbit path shows where the satellite is in the earth's shadow,  

DLR